CAPE
1439 1522 1443 1135 170 1293 980 588 324 854 322 376 359 533 653 393 554 788 741 809 636 472 841 847 868 1390 1254 1013 834 344 109 637 805 324 145 483 665 323 79 811 378 788 642
1433 1492 1087 1140 687 240 1101 1052 1052 933 342 86 187 295 722 522 638 937 917 1262 742 628 771 944 815 1092 1010 640 783 759 349 112 530 634 415 93 174 648 184 203 814 352 270
1378 1152 1269 612 1100 267 243 1098 1249 521 133 37 41 125 617 625 621 875 1076 1216 1094 553 805 1013 781 1080 955 924 780 911 688 467 380 636 791 566 110 305 415 123 105 176 244
1164 1126 889 505 421 1090 211 646 697 408 83 34 32 181 320 389 573 872 982 1004 987 1096 1105 701 431 265 448 499 820 972 895 753 582 276 151 498 320 276 242 194 188 177 226
1148 1004 519 453 597 419 458 103 138 173 65 82 64 179 206 181 339 522 580 890 1045 947 768 1002 596 245 141 277 733 835 765 603 759 594 498 424 274 225 201 187 320 457 179
1030 972 689 697 788 304 262 171 90 71 65 97 176 117 104 117 155 458 732 879 694 763 832 710 1023 1070 656 366 385 551 667 552 563 521 575 388 393 365 240 168 107 87 127
833 1053 603 939 1035 687 514 590 491 299 103 29 102 105 108 192 302 438 655 620 507 637 739 751 838 675 578 696 625 549 558 550 401 379 369 378 347 327 304 275 228 135 104
983 734 624 644 1241 1192 1069 990 918 286 111 0 72 3 2 5 32 104 267 244 217 368 486 462 651 884 974 739 679 829 785 679 443 392 340 394 382 371 360 358 275 233 203
1100 915 700 706 963 1319 1017 1357 1221 911 280 170 258 0 20 21 48 214 372 625 449 534 767 780 898 999 1310 1398 1267 1172 975 807 693 513 451 405 414 410 435 429 404 345 295
854 944 1040 1210 1423 1241 1128 1022 1296 1199 942 775 787 965 743 416 29 70 483 747 1029 1177 1025 973 779 968 1191 1340 1299 1236 1176 1066 1003 951 721 519 475 548 580 531 517 497 460
817 794 1051 1309 1562 1537 1384 1128 1183 1062 992 933 718 802 894 609 685 501 334 413 652 516 687 922 906 725 766 1073 1062 1048 1062 864 599 702 596 597 671 670 769 779 713 599 588
847 913 889 1291 1563 1536 1623 1568 1613 1429 1347 967 974 1071 432 495 540 533 557 652 502 346 413 583 459 335 287 296 470 451 458 574 456 437 460 507 510 370 470 787 787 662 655
1015 1267 1393 1461 1527 1678 1680 1716 1710 1611 1365 903 806 815 600 620 589 690 735 454 313 276 384 461 413 416 604 710 513 472 539 445 220 109 68 39 32 55 408 920 819 710 602
1216 1537 1637 1493 1598 1624 1642 1494 1780 1059 1041 1243 988 980 600 694 762 693 592 319 245 293 184 241 634 667 585 452 517 315 419 394 328 225 93 70 154 388 587 624 400 154 34
1293 1450 1549 1561 1515 1573 1564 1663 1635 1294 1046 1191 938 1166 986 714 744 761 681 691 491 318 84 209 496 623 582 610 587 457 509 748 731 283 91 112 180 251 98 18 6 3 0
1524 1599 1720 1731 1697 1647 1583 1639 1582 1299 1208 919 968 853 1003 700 670 840 633 729 582 467 294 431 434 487 627 637 669 676 623 523 300 111 76 51 25 1 0 0 0 0 0
1272 1533 1690 1947 1841 1754 1708 1714 1610 1232 1061 998 919 1132 834 962 834 746 685 690 633 694 551 484 441 363 706 667 697 807 776 701 690 149 25 7 0 0 0 0 0 0 0
1361 1428 1545 1461 1779 1667 1746 1730 1549 1198 1092 934 889 1144 1057 1105 1410 1057 834 646 562 663 625 516 306 475 509 627 844 886 813 596 677 195 44 14 9 0 0 0 0 0 0
1534 1614 1663 1569 1625 1511 1601 1494 1550 1327 1222 1236 1011 1229 1424 1330 1297 1266 1068 808 716 681 647 467 405 466 403 546 764 778 596 222 96 59 22 7 2 0 0 0 0 0 0
1097 1226 1345 1107 1192 1418 1394 1322 1310 1372 1308 1318 1280 1163 1031 1132 1048 1238 1229 990 650 600 522 676 471 465 436 457 586 485 577 396 250 97 49 24 24 1 0 0 0 0 0
175 136 263 646 949 1108 1064 1193 1301 1246 1370 1314 1125 984 1007 1065 775 1020 934 694 523 569 493 491 473 516 308 443 488 450 322 345 464 433 238 194 108 45 2 0 0 0 0
109 92 49 27 46 273 531 611 785 1284 1175 973 1112 1114 1161 789 405 650 586 323 513 488 522 522 389 385 464 553 508 453 439 336 168 278 223 162 116 127 16 20 6 0 0
46 90 37 76 113 327 308 252 323 896 987 1036 1365 1235 987 693 556 767 219 171 158 374 419 630 576 551 527 505 453 552 425 321 171 307 313 166 113 58 51 22 0 0 0
98 49 13 115 108 189 41 48 69 299 911 964 909 1004 711 443 410 340 269 188 246 404 387 408 532 694 697 682 719 524 529 477 519 248 269 139 49 56 118 100 0 0 0
92 27 12 22 60 108 22 0 0 0 146 304 227 253 168 71 29 41 54 113 206 426 499 339 291 330 279 278 388 532 377 450 414 392 191 116 62 61 68 52 73 0 0
242 241 211 74 55 214 51 0 0 3 134 168 200 28 14 4 9 5 40 81 129 141 460 584 640 352 234 368 135 297 410 383 341 269 295 103 51 58 59 51 56 3 0
CIN
-1 -0 -0 -0 -62 -7 -6 -3 -1 -0 -2 -3 -0 -1 -1 -0 -1 -1 -1 -37 -69 -89 -65 -58 -48 -12 -7 -8 -12 -79 -157 -28 -1 -56 -91 -3 -0 -9 -74 -0 -3 -0 -0
-1 -3 -10 -2 -3 -26 -4 -3 -0 -0 -5 -30 -11 -7 -1 -0 -1 -1 -0 -2 -59 -86 -78 -58 -57 -38 -38 -55 -36 -33 -88 -148 -36 -12 -34 -97 -61 -1 -30 -35 -0 -4 -8
-1 -0 -1 -1 -4 -22 -28 -0 -0 -0 -32 -58 -56 -20 -0 -0 -1 -1 -0 -1 -16 -71 -73 -67 -64 -42 -44 -44 -49 -35 -45 -66 -75 -30 -9 -26 -80 -26 -12 -51 -62 -31 -19
-0 -1 -0 -6 -6 -0 -35 -3 -1 -5 -42 -52 -62 -23 -2 -1 -0 -0 -0 -1 -1 -1 -48 -62 -77 -81 -62 -57 -42 -32 -34 -43 -56 -84 -110 -44 -59 -46 -38 -46 -45 -46 -22
-0 -0 -2 -2 -0 -6 -10 -66 -49 -31 -48 -42 -51 -29 -15 -8 -1 -2 -1 -1 -0 -1 -1 -29 -45 -75 -89 -75 -48 -36 -34 -35 -35 -48 -55 -64 -80 -71 -62 -51 -31 -13 -45
-0 -0 -1 -1 -0 -13 -21 -47 -74 -85 -71 -35 -14 -6 -13 -10 -2 -2 -2 -1 -1 -0 -1 -1 -5 -8 -38 -58 -60 -48 -36 -43 -43 -41 -44 -47 -48 -46 -74 -63 -60 -58 -54
-13 -2 -11 -2 -6 -1 -4 -7 -12 -38 -93 -118 -43 -20 -10 -10 -2 -1 -2 -1 -4 -1 -1 -2 -1 -1 -2 -25 -25 -39 -44 -41 -45 -43 -41 -46 -46 -41 -44 -49 -52 -53 -62
-15 -20 -19 -3 -0 -1 -2 -3 -1 -23 -72 -0 -81 -32 -1 -2 -31 -11 -2 -1 -1 -1 -2 -1 -1 -0 -1 -2 -1 -15 -34 -41 -39 -36 -34 -46 -47 -39 -36 -46 -51 -54 -53
-19 -36 -42 -18 -0 -0 -10 -1 -1 -1 -8 -27 -31 -0 -21 -49 -3 -3 -3 -2 -1 -2 -2 -2 -2 -1 -0 -1 -1 -2 -19 -38 -45 -43 -36 -37 -40 -41 -42 -40 -47 -48 -41
-33 -27 -16 -5 -1 -4 -3 -2 -0 -2 -7 -6 -3 -0 -5 -8 -79 -47 -3 -1 -1 -8 -3 -2 -2 -0 -1 -0 -0 -11 -24 -32 -48 -53 -47 -40 -43 -40 -41 -42 -41 -42 -33
-40 -32 -17 -3 -1 -3 -1 -3 -2 -1 -5 -7 -11 -5 -1 -2 -3 -3 -2 -1 -3 -2 -2 -2 -2 -1 -1 -1 -1 -1 -24 -43 -66 -85 -94 -69 -51 -43 -46 -46 -43 -33 -29
-30 -22 -7 -2 -0 -1 -6 -1 -1 -0 -1 -2 -7 -6 -8 -1 -6 -7 -1 -2 -2 -2 -3 -2 -2 -1 -1 -2 -5 -40 -48 -65 -92 -104 -94 -83 -75 -66 -62 -43 -34 -31 -31
-2 -1 -8 -0 -0 -0 -0 -0 -0 -0 -0 -3 -4 -1 -1 -7 -9 -7 -1 -1 -4 -2 -3 -2 -9 -17 -3 -1 -1 -4 -23 -63 -113 -138 -132 -139 -127 -118 -76 -50 -29 -30 -36
-7 -1 -2 -1 -1 -0 -1 -2 -1 -15 -9 -9 -3 -0 -1 -2 -8 -2 -2 -1 -2 -1 -1 -3 -0 -4 -3 -2 -3 -36 -16 -54 -83 -101 -103 -111 -90 -76 -56 -39 -41 -67 -113
-2 -8 -9 -7 -0 -0 -1 -0 -0 -4 -7 -8 -15 -4 -3 -2 -3 -7 -5 -12 -1 -1 -10 -2 -9 -3 -3 -2 -5 -23 -17 -1 -17 -57 -109 -82 -67 -68 -72 -111 -155 -209 -0
-3 -1 -0 -0 -2 -0 -0 -1 -1 -2 -1 -6 -15 -25 -13 -13 -2 -4 -4 -6 -3 -3 -7 -2 -1 -3 -2 -0 -0 -9 -9 -15 -25 -66 -72 -70 -81 -24 -0 -0 -0 -0 -0
-13 -12 -4 -0 -1 -1 -1 -0 -3 -2 -1 -2 -1 -9 -52 -15 -7 -8 -8 -1 -1 -0 -0 -1 -2 -3 -5 -12 -1 -0 -0 -0 -0 -35 -57 -71 -0 -0 -0 -0 -0 -0 -0
-7 -13 -21 -6 -1 -0 -1 -1 -1 -21 -1 -1 -2 -1 -2 -1 -0 -1 -1 -2 -3 -1 -2 -0 -3 -1 -3 -0 -0 -0 -0 -0 -0 -27 -63 -75 -99 -0 -0 -0 -0 -0 -0
-1 -1 -0 -1 -0 -2 -0 -1 -0 -1 -1 -1 -1 -1 -1 -0 -0 -0 -0 -1 -1 -1 -6 -2 -1 -1 -1 -1 -0 -1 -10 -48 -89 -128 -118 -117 -88 -0 -0 -0 -0 -0 -0
-0 -0 -0 -2 -3 -1 -1 -0 -1 -1 -1 -1 -1 -1 -1 -1 -1 -1 -0 -0 -1 -6 -10 -1 -0 -0 -12 -2 -1 -1 -1 -9 -11 -96 -136 -107 -84 -25 -0 -0 -0 -0 -0
-129 -132 -61 -1 -0 -0 -1 -0 -1 -1 -3 -0 -0 -3 -1 -1 -8 -1 -1 -1 -1 -0 -2 -1 -1 -0 -33 -1 -0 -1 -3 -2 -0 -0 -9 -15 -38 -71 -0 -0 -0 -0 -0
-100 -81 -112 -106 -36 -28 -2 -9 -15 -1 -2 -11 -11 -1 -1 -11 -28 -10 -9 -17 -2 -2 -0 -0 -2 -1 -3 -6 -7 -0 -0 -1 -5 -1 -2 -4 -21 -5 -30 -24 -2 -0 -0
-91 -46 -54 -21 -11 -0 -3 -25 -37 -1 -1 -1 -0 -0 -1 -6 -21 -2 -55 -38 -35 -10 -5 -4 -5 -2 -17 -9 -3 -0 -1 -1 -0 -7 -2 -1 -11 -31 -12 -19 -0 -0 -0
-17 -42 -47 -1 -0 -24 -53 -102 -90 -32 -0 -0 -0 -0 -1 -22 -18 -5 -23 -23 -11 -3 -16 -2 -1 -0 -1 -0 -0 -0 -0 -3 -0 -1 -0 -1 -5 -18 -16 -11 -0 -0 -0
-32 -118 -87 -82 -26 -14 -141 -17 -0 -1 -11 -0 -16 -20 -71 -85 -65 -32 -39 -23 -7 -2 -3 -22 -21 -14 -35 -35 -14 -1 -1 -0 -0 -0 -6 -10 -14 -2 -23 -46 -83 -0 -0
-0 -0 -0 -48 -14 -0 -11 -0 -0 -10 -0 -0 -0 -72 -89 -111 -86 -39 -34 -21 -15 -12 -1 -1 -3 -32 -54 -36 -78 -32 -2 -1 -0 -1 -2 -30 -37 -3 -14 -29 -43 -4 -0
Wind_Speed
19 23 25 25 24 5 26 26 24 23 24 26 25 25 24 23 21 21 21 9 9 18 20 19 16 15 17 13 11 12 12 12 11 11 10 10 10 10 10 11 10 11 8
8 15 26 18 21 16 6 27 23 24 25 26 27 26 24 24 23 22 22 17 6 13 16 19 16 9 8 10 9 9 10 11 10 9 9 9 9 8 8 8 8 9 9
15 20 8 12 8 15 20 16 22 20 24 25 26 25 26 26 25 24 23 22 11 6 9 14 18 15 7 7 7 7 6 8 10 9 8 8 7 6 6 5 3 10 12
13 20 18 16 11 7 11 10 14 19 22 23 24 26 26 27 25 27 26 24 22 19 4 9 12 14 10 8 6 6 5 5 8 9 9 8 6 6 7 7 11 14 15
10 17 21 16 11 9 8 11 12 20 21 22 24 26 28 29 28 29 29 27 25 24 24 5 0 6 9 13 9 9 8 4 6 7 7 8 6 6 8 9 11 8 12
9 10 18 20 11 13 11 15 16 14 23 21 25 26 28 29 31 29 30 30 30 29 27 28 21 16 4 9 10 11 6 6 5 5 9 7 6 7 8 9 12 11 12
6 8 15 12 16 16 18 9 18 21 19 23 25 27 30 30 33 33 32 31 32 27 29 30 28 29 26 4 5 6 9 10 7 6 8 9 8 7 9 9 10 11 9
13 10 8 17 11 20 28 25 20 24 23 21 23 26 27 26 21 22 32 32 32 32 30 21 23 28 28 29 22 10 10 7 7 9 11 10 8 8 9 10 11 11 12
16 15 13 15 17 13 15 13 27 29 23 21 21 25 21 23 24 22 14 22 26 25 27 26 24 23 23 26 30 27 16 15 16 14 10 9 9 9 10 10 10 12 12
18 17 17 14 18 19 14 16 12 15 28 25 22 26 27 22 21 26 25 21 22 23 24 27 27 26 25 26 27 30 33 28 26 25 23 19 12 9 9 11 9 7 7
16 19 18 18 14 9 19 14 16 18 15 26 31 27 26 26 27 27 31 30 25 20 21 20 24 26 25 25 27 25 23 24 27 27 23 21 18 16 13 12 14 10 10
11 16 18 17 17 14 10 10 9 15 19 27 28 31 33 27 23 22 23 29 32 30 25 28 30 30 31 31 27 26 28 28 29 29 28 25 22 21 18 13 12 13 15
11 11 15 14 15 16 13 9 9 10 12 21 26 32 22 25 23 24 22 29 30 27 23 19 24 26 28 29 29 27 26 27 30 30 29 28 26 24 20 14 12 16 16
14 13 12 17 17 15 14 13 9 11 10 12 17 25 36 31 25 18 14 23 28 28 18 17 23 21 25 27 29 32 32 29 26 28 31 30 27 24 22 15 13 17 21
25 17 13 13 16 17 14 11 10 10 10 10 9 11 16 33 24 20 25 26 18 22 15 25 19 20 22 25 25 28 30 27 24 28 28 25 21 18 17 16 15 18 22
26 26 23 18 16 15 14 13 12 11 10 10 10 10 11 13 14 17 15 17 14 12 13 18 18 16 19 25 26 23 23 25 23 25 25 21 18 15 14 14 16 19 16
31 36 32 29 23 19 17 16 14 13 12 11 10 10 11 11 12 10 12 13 15 10 9 14 19 22 19 19 21 18 19 22 23 20 21 19 18 16 14 16 15 18 20
33 26 34 31 29 24 23 20 19 18 17 15 14 13 11 11 11 11 11 11 11 11 9 14 17 15 13 16 15 14 13 17 22 20 18 18 16 16 15 15 17 19 20
34 32 28 29 24 27 24 23 24 24 22 20 19 18 16 14 15 13 12 13 11 10 12 15 16 14 18 16 14 13 11 12 18 16 15 17 16 18 18 19 19 19 20
36 35 35 36 31 27 27 26 25 26 24 22 21 21 19 18 16 15 15 15 13 11 12 14 15 17 17 19 16 17 13 10 11 14 16 17 17 16 18 18 17 17 18
34 37 39 36 35 35 34 28 28 27 25 24 25 23 21 21 18 18 17 15 15 16 16 16 18 17 17 16 16 16 16 17 11 9 14 14 13 13 14 15 15 14 16
31 33 34 36 39 39 37 33 33 33 32 29 28 27 24 22 21 21 19 20 17 14 17 18 20 21 19 16 16 17 15 16 14 8 9 9 7 7 8 8 12 11 11
25 27 29 32 35 33 29 30 30 32 32 31 31 29 26 25 23 21 17 21 21 17 17 21 22 21 21 18 18 18 17 15 16 15 16 18 14 13 11 12 9 9 10
25 26 26 26 27 27 27 28 28 27 27 31 33 29 27 26 24 25 22 23 20 20 19 21 25 24 22 21 18 19 19 20 19 17 15 18 17 17 13 14 11 12 10
21 23 22 22 24 27 27 24 21 25 27 28 29 29 26 26 28 28 26 22 22 20 21 17 24 29 27 24 20 21 22 20 21 21 16 16 18 17 13 12 12 9 11
17 18 18 19 27 25 24 21 15 15 17 22 19 21 23 25 24 24 26 24 27 22 21 21 25 29 30 29 25 24 23 26 24 25 14 14 19 18 20 14 16 13 14
Wind_Direction
252 239 227 219 229 315 221 219 229 235 234 231 231 230 230 241 249 253 263 353 125 174 179 176 156 160 168 150 142 149 157 160 152 151 149 149 153 154 163 172 165 174 143
280 260 233 257 250 263 150 219 242 237 237 236 236 240 244 247 251 254 255 292 26 152 165 175 163 123 123 140 141 145 152 160 162 157 157 159 170 153 158 161 165 172 176
264 253 284 278 290 270 257 266 249 258 247 247 245 251 249 253 254 260 262 269 334 77 135 162 178 171 138 137 146 147 145 161 172 170 168 166 163 161 166 164 140 190 197
269 257 261 271 280 290 277 282 273 266 259 259 256 253 255 254 264 258 263 271 280 282 36 151 167 179 174 170 164 168 166 169 180 182 184 183 179 181 185 187 196 201 208
269 267 261 272 279 284 285 279 280 266 264 265 263 259 254 254 257 255 255 263 275 279 280 334 326 183 189 196 192 193 192 192 189 192 195 200 199 198 199 200 203 196 204
266 268 270 267 278 278 281 273 271 274 264 269 265 265 261 259 251 260 257 257 255 269 278 280 299 311 222 210 209 208 223 212 210 208 204 210 212 211 208 209 209 209 214
228 260 272 276 274 274 272 283 269 266 271 266 267 265 261 263 252 255 260 267 262 284 280 280 285 285 294 280 280 254 223 223 241 235 224 224 226 226 222 217 214 213 223
179 188 247 273 272 271 259 261 268 263 267 270 269 268 269 274 286 285 266 270 272 276 282 300 298 290 290 290 304 309 304 288 251 238 233 236 239 238 229 224 221 220 222
184 185 187 191 273 273 276 277 260 254 270 272 270 268 283 283 285 292 299 293 289 293 291 295 299 300 300 298 295 300 305 303 304 303 282 261 257 248 236 233 227 225 227
190 190 190 192 192 273 272 276 273 275 265 271 272 271 273 288 293 291 293 300 300 300 299 296 296 299 300 299 298 296 291 299 301 302 303 303 290 273 258 233 241 247 244
197 196 196 195 198 221 275 274 276 276 276 272 264 273 278 282 283 287 281 284 299 307 306 307 304 302 304 304 301 303 303 302 301 302 301 300 300 298 296 287 294 299 309
221 202 198 198 198 200 227 241 252 274 278 274 273 271 270 280 288 289 291 291 290 295 301 300 299 300 299 299 302 301 301 300 301 300 299 299 299 299 303 292 290 300 311
233 221 205 206 201 199 201 213 227 261 271 277 275 270 284 283 289 290 294 292 296 302 309 313 311 307 304 302 303 303 303 302 301 298 297 297 298 296 300 298 296 303 310
252 249 220 202 202 203 203 207 234 214 260 272 280 278 264 277 288 291 285 298 299 302 308 310 313 313 312 306 307 303 299 300 303 299 293 293 297 300 297 303 305 307 306
256 254 241 227 210 205 209 219 229 231 231 236 248 265 283 277 290 289 291 294 298 303 303 311 316 318 317 311 314 311 306 306 306 303 297 297 300 302 299 301 304 304 306
259 261 261 256 245 233 227 228 245 241 241 234 245 259 267 285 291 294 287 293 293 293 243 316 318 322 322 314 314 319 319 315 314 306 298 298 298 300 302 302 304 304 312
261 260 261 264 260 252 247 247 245 253 242 239 250 262 265 277 282 281 287 286 293 291 287 312 317 318 323 322 321 328 327 325 322 321 305 300 297 296 300 300 301 305 309
263 258 260 263 264 262 261 255 255 260 258 261 264 270 273 284 285 287 290 282 287 293 294 309 316 322 328 331 332 338 342 336 326 324 318 308 307 305 308 311 308 305 308
265 261 256 261 261 265 265 262 263 266 266 267 271 278 282 286 291 294 292 295 291 292 302 305 312 322 322 331 335 341 345 345 329 336 328 318 315 308 309 306 308 308 309
266 265 264 266 266 267 265 266 264 264 265 269 273 277 279 282 287 290 292 292 292 296 298 301 306 310 317 320 326 325 339 347 344 330 322 322 314 315 306 308 311 313 313
269 269 268 269 268 267 268 266 266 263 262 266 272 275 277 281 283 287 291 289 289 289 292 295 298 305 312 317 320 326 324 326 343 349 331 330 329 321 317 310 311 314 313
272 273 273 268 266 269 270 267 266 267 265 266 268 270 274 279 281 278 279 286 286 281 286 290 294 297 303 309 314 318 325 325 331 334 335 340 348 343 337 330 323 323 323
277 280 277 273 269 271 272 270 269 266 266 265 265 266 271 278 282 279 273 279 278 278 280 285 288 294 298 303 307 313 317 325 323 328 325 317 324 326 328 323 323 323 319
279 280 282 283 277 272 271 273 275 273 273 266 263 267 272 277 283 280 281 280 271 276 274 278 282 289 293 299 304 307 309 311 316 319 323 318 318 316 322 318 316 315 318
278 275 280 283 275 270 267 277 285 280 272 266 266 270 275 281 283 285 282 277 277 277 280 276 281 282 288 292 297 301 302 305 307 310 315 317 321 317 323 320 316 313 313
283 286 291 287 262 267 270 281 299 304 282 272 272 277 277 285 290 278 282 278 279 283 282 287 286 283 283 285 288 290 294 293 297 302 315 321 316 315 315 316 311 313 313